Location: Detroit
(42.3310°N, 83.0460°W)
Time: 13:25:15
(UTC-05:00)

deb Explorer IX - Visible Passes

Search period start: 30 January 2023 00:00
Search period end: 09 February 2023 00:00
Orbit: 534 x 1049 km, 38.8° (Epoch: 29 January)

Date Brightness Start Highest point End Pass type
(mag) Time Alt. Az. Time Alt. Az. Time Alt. Az.
30 Jan ? 05:37:22 21° S 05:38:13 22° SSE 05:41:23 10° ESE visible
31 Jan ? 05:06:46 19° SE 05:06:46 19° SE 05:08:51 10° ESE visible
31 Jan ? 06:47:28 10° WSW 06:51:20 46° S 06:55:16 10° E visible
01 Feb ? 04:36:04 11° ESE 04:36:04 11° ESE 04:36:19 10° ESE visible
01 Feb ? 06:16:44 23° SW 06:18:54 44° S 06:22:46 10° E visible
02 Feb ? 05:45:57 40° S 05:46:26 43° S 05:50:15 10° E visible
03 Feb ? 05:15:06 33° SE 05:15:06 33° SE 05:17:46 10° E visible
03 Feb ? 06:55:45 10° W 06:59:40 50° S 07:03:36 10° ESE visible
04 Feb ? 04:44:11 17° ESE 04:44:11 17° ESE 04:45:17 10° E visible
04 Feb ? 06:24:50 22° WSW 06:27:10 51° S 06:31:05 10° ESE visible
05 Feb ? 05:53:54 45° SW 05:54:39 52° S 05:58:34 10° ESE visible
06 Feb ? 05:22:55 44° SE 05:22:55 44° SE 05:26:03 10° ESE visible
06 Feb ? 07:04:04 10° W 07:07:45 32° SSW 07:11:22 10° SE visible
07 Feb ? 04:51:56 22° ESE 04:51:56 22° ESE 04:53:32 10° ESE visible
07 Feb ? 06:32:34 17° WSW 06:35:12 35° SSW 06:38:53 10° SE visible
08 Feb ? 04:20:56 10° ESE 04:20:56 10° ESE 04:21:00 10° ESE visible
08 Feb ? 06:01:35 32° SW 06:02:38 38° SSW 06:06:23 10° SE visible
